Theta_e
294 294 294 295 294 294 293 293 294 293 294 294 293 293 295 296 290 289 296 298 296 297 300 303 306 312 312 312 316 319 323 325 325 325 324 323 323 323 324 325 326 326 326 325 325 326 326 326 325 326 327 327 326 325 324 324 324 322 322 323 321 321 321 319 319 320 321 320 319 317 316 316 316 317 316 316 314 314 313 313 313 312 312 311 310 310 309
293 294 294 295 294 294 294 294 294 295 294 294 294 295 296 296 296 297 297 298 298 300 301 303 311 315 313 315 319 322 322 323 324 323 322 321 322 323 323 324 326 327 327 326 326 327 327 326 326 326 326 326 325 323 320 321 321 322 323 323 321 321 321 321 320 320 320 319 317 316 315 314 315 316 315 315 314 313 312 312 312 312 312 311 310 310 309
292 295 295 296 295 294 293 294 295 295 295 295 295 296 296 297 297 298 297 297 298 303 305 304 316 316 313 317 316 319 321 322 323 322 321 321 322 323 323 325 325 327 326 327 326 325 325 325 325 325 324 325 325 323 321 320 320 320 321 320 321 321 321 320 319 318 317 316 315 314 314 313 314 314 314 314 313 311 312 312 312 311 311 310 310 310 309
290 294 294 296 296 295 294 294 294 295 294 293 295 293 297 296 295 296 297 295 295 300 304 305 312 314 311 313 317 320 322 323 323 322 322 321 322 323 323 324 325 325 325 325 326 325 326 326 325 324 324 323 322 321 321 321 320 320 320 319 320 320 318 318 317 315 314 314 313 313 312 312 312 313 313 312 311 311 311 311 311 312 311 310 310 310 309
288 295 295 295 295 294 291 290 294 295 296 296 297 297 298 298 299 295 291 294 300 302 304 302 305 312 311 313 316 320 322 324 323 323 323 323 323 324 324 325 325 325 324 324 324 325 327 326 325 326 325 322 320 319 319 320 319 319 319 319 319 318 316 316 316 315 313 312 312 312 312 312 312 311 311 310 310 310 311 312 311 310 310 309 309 309 309
288 293 294 295 291 284 285 298 301 299 296 296 295 295 297 299 300 298 300 300 302 303 303 305 306 307 313 316 321 324 324 323 324 324 324 325 325 325 326 325 326 326 326 325 325 326 326 325 325 325 325 321 321 320 320 320 320 320 319 318 318 315 314 315 314 312 311 311 310 311 311 311 310 310 309 309 310 311 311 311 310 310 310 310 310 309 309
287 292 292 288 283 285 302 302 304 301 300 299 297 298 299 300 301 301 299 300 301 303 304 306 309 314 320 321 322 324 324 325 324 323 324 325 326 326 326 325 326 327 326 325 325 325 324 324 326 326 323 321 319 319 319 319 319 318 318 317 317 315 314 314 313 311 310 310 310 310 310 309 309 309 309 309 310 310 310 309 309 308 309 309 309 309 309
291 289 288 281 284 298 303 303 303 304 303 301 299 297 300 301 301 301 299 301 302 304 305 307 312 314 318 320 320 323 325 326 325 324 324 326 327 327 327 326 325 326 326 326 325 326 326 326 325 325 324 322 321 319 319 317 316 316 316 315 313 312 312 313 312 310 310 310 309 309 308 308 308 308 309 309 309 309 309 309 309 309 309 309 308 308 308
286 289 288 287 297 297 301 301 299 298 297 299 297 290 296 302 303 302 301 302 303 304 306 313 314 317 317 316 318 323 324 325 326 327 327 329 329 329 329 329 327 328 328 327 328 327 326 325 324 324 322 322 320 317 316 316 316 316 316 316 315 313 312 312 311 310 310 309 308 307 306 306 306 307 308 308 309 309 308 308 307 307 308 307 308 307 307
292 288 287 288 287 284 291 302 305 306 308 307 304 298 294 303 304 306 304 303 303 305 310 312 315 318 311 307 310 323 325 326 326 327 328 330 330 330 329 329 329 329 329 329 328 328 327 325 324 323 322 320 319 317 317 317 317 318 318 318 317 315 313 310 309 309 310 309 307 306 306 305 305 306 307 307 308 308 307 307 306 306 307 307 308 308 307
290 289 286 286 284 288 299 302 305 307 308 307 306 298 292 301 303 305 305 304 305 306 312 314 316 311 304 304 311 324 326 326 327 327 328 329 330 329 328 329 328 328 328 328 327 327 326 324 323 323 321 321 320 319 318 318 317 316 316 315 313 312 310 308 308 308 309 308 307 306 305 306 306 306 306 306 306 306 305 304 304 305 305 306 307 307 308
290 289 287 285 289 289 298 304 307 305 309 309 302 287 288 309 310 310 307 305 306 308 314 315 313 307 301 305 316 322 326 327 328 327 326 328 329 328 329 330 330 329 328 327 326 327 326 326 326 324 322 321 321 320 319 319 318 316 316 316 315 314 312 310 308 307 307 306 305 304 304 305 306 306 306 306 305 304 303 303 303 304 304 305 305 305 306
290 287 289 291 291 297 305 305 306 304 309 305 290 286 296 308 313 312 310 309 309 312 314 314 308 314 317 319 322 322 325 326 326 328 330 330 329 329 329 328 321 328 327 327 326 327 327 326 325 324 322 321 319 320 320 318 317 318 319 319 316 314 312 311 309 307 306 305 304 304 304 305 305 305 305 305 304 303 301 301 302 302 303 304 304 304 305
289 291 289 290 293 299 305 309 305 306 302 290 289 305 313 314 313 316 314 313 313 314 314 314 314 320 320 323 324 322 325 325 326 328 329 330 330 331 330 325 326 328 327 327 327 327 328 326 324 323 322 320 319 318 318 319 321 320 319 316 314 313 311 310 309 308 306 305 304 304 304 304 303 303 304 305 303 302 301 301 301 302 303 303 302 303 303
291 290 288 288 285 296 309 309 306 304 295 301 309 313 317 317 317 317 318 316 315 315 314 317 320 319 319 323 324 323 326 327 327 328 328 329 329 329 329 328 328 327 327 326 326 327 327 326 324 322 322 319 319 318 317 321 324 321 315 313 311 310 309 308 308 307 305 303 303 304 304 304 303 303 304 304 303 302 301 301 301 301 301 301 302 301 302
288 289 286 287 295 304 312 309 297 306 312 314 315 316 313 318 318 317 318 318 317 314 314 317 320 320 319 322 324 326 326 327 328 329 329 330 331 330 330 328 328 327 327 326 326 326 326 326 324 323 321 319 318 317 318 320 321 318 314 312 313 310 309 309 308 306 304 303 304 305 305 304 304 305 304 304 302 301 301 301 300 299 299 300 300 300 300
293 290 294 303 308 310 312 312 312 314 315 316 316 317 319 316 316 320 317 317 317 315 315 318 319 318 320 322 325 325 326 327 327 327 327 328 329 329 329 328 328 327 327 326 326 325 325 325 325 323 322 320 318 317 320 322 321 316 313 311 311 310 310 309 308 307 305 306 306 306 306 306 305 305 304 302 300 301 301 300 300 299 298 299 298 299 299
304 304 304 306 305 310 312 313 314 314 316 316 317 318 317 318 319 319 318 318 317 317 319 318 317 318 320 321 321 324 326 326 326 325 325 327 329 329 329 328 327 327 327 326 325 324 324 325 325 323 323 322 318 320 320 319 321 317 314 312 312 311 310 308 307 306 306 305 306 307 307 306 306 304 302 301 300 301 301 301 300 299 297 297 297 298 298
295 291 307 306 306 313 312 313 315 316 317 316 318 318 319 319 320 320 320 320 319 318 318 318 318 318 320 320 321 323 325 326 326 327 327 328 328 328 327 328 325 327 326 325 324 323 323 324 324 324 324 323 322 322 319 318 318 317 315 312 310 310 309 307 306 306 305 304 305 305 305 305 305 304 303 302 302 301 302 300 299 298 298 297 296 297 297
295 296 307 309 312 313 314 315 315 315 315 316 318 320 321 321 321 321 322 322 321 322 320 321 319 318 320 320 321 321 323 326 326 327 327 327 327 328 329 328 327 327 326 325 324 322 321 322 323 323 323 323 322 320 319 318 317 315 312 311 310 310 308 306 305 305 305 298 302 305 305 305 304 304 304 304 302 301 300 299 298 297 298 297 296 297 297
301 305 307 309 311 312 312 313 314 316 316 316 318 320 320 320 320 320 321 322 321 321 321 323 321 319 319 321 321 321 322 324 325 326 328 328 327 327 326 327 326 326 326 324 324 322 321 323 323 323 323 322 321 320 319 318 317 314 312 310 310 310 309 308 307 305 305 304 305 304 304 305 305 305 303 302 301 301 302 301 300 298 298 297 297 298 298
295 297 302 310 300 298 310 313 315 315 316 317 318 319 316 318 319 320 320 320 320 320 322 322 321 320 319 321 322 320 322 323 326 327 327 326 327 326 327 327 326 326 326 325 324 321 321 323 323 323 322 321 321 320 318 318 317 315 313 312 312 310 309 308 307 306 306 305 305 304 304 304 304 305 296 296 300 302 301 296 294 294 294 299 299 299 297
296 306 308 313 313 311 313 313 316 318 319 319 317 317 317 317 318 319 319 318 319 318 319 322 321 320 321 321 322 322 322 324 325 326 326 325 324 324 325 325 325 325 325 324 323 321 322 322 322 323 321 320 320 319 318 318 317 316 314 311 310 310 309 309 306 306 307 306 305 305 305 304 305 303 302 300 294 293 295 295 293 291 292 293 292 293 297
309 310 311 313 312 310 311 312 312 315 316 316 316 316 317 317 316 317 317 317 317 317 318 319 321 321 321 322 322 321 322 323 324 324 325 325 324 323 324 323 324 324 323 323 321 320 322 322 323 322 319 318 318 318 317 317 317 316 313 311 309 309 308 307 304 305 306 305 305 305 305 305 305 303 302 300 299 293 291 292 291 291 291 291 291 292 292
308 312 312 313 315 314 314 315 315 315 314 313 314 315 316 316 316 316 316 316 317 317 317 318 320 322 322 322 323 322 321 322 322 322 320 318 320 322 322 322 323 322 322 322 322 322 323 323 323 321 318 316 317 316 316 317 316 314 313 312 310 308 307 306 304 304 304 305 304 305 304 304 305 305 303 300 298 298 296 291 291 291 291 291 291 291 291
312 313 313 314 313 313 314 312 312 312 313 313 314 315 314 311 311 316 315 316 316 318 318 318 318 320 322 322 322 323 322 320 316 317 322 322 322 322 322 322 323 322 322 321 321 321 322 321 322 321 318 316 316 317 317 316 316 314 313 312 311 308 307 306 305 305 305 306 304 304 304 304 305 304 304 303 302 300 297 297 296 293 291 290 290 291 291
313 314 314 311 310 311 313 312 310 312 312 313 312 312 312 314 312 315 316 317 317 318 318 319 320 320 320 320 318 320 321 318 320 321 321 321 320 321 322 322 322 321 321 321 321 318 315 320 320 319 317 317 317 317 316 315 315 313 312 312 310 301 294 298 306 305 305 305 304 304 305 305 304 303 304 303 302 301 300 298 298 297 297 297 292 290 294
313 312 312 310 306 308 309 311 312 312 311 310 312 312 312 314 314 314 314 315 316 317 318 318 319 320 319 320 321 320 321 321 321 321 320 320 321 322 323 323 322 321 320 320 320 320 318 319 319 317 316 317 317 316 316 315 315 315 314 312 311 308 306 303 306 306 305 305 304 304 305 306 306 304 303 302 302 302 301 300 300 299 299 299 299 292 290
312 312 313 313 312 311 311 310 309 308 311 312 312 313 312 311 311 311 313 314 315 316 316 317 318 318 319 319 320 319 319 319 319 319 320 320 320 321 322 322 322 321 320 320 319 317 317 317 317 316 315 317 317 316 316 314 314 314 314 313 312 309 307 306 306 306 305 305 306 306 300 303 303 303 303 303 304 304 303 303 301 301 300 300 300 297 292
312 312 312 313 314 313 311 309 307 306 308 310 311 311 311 311 310 310 311 312 314 314 315 317 317 317 317 317 317 318 318 319 318 319 318 319 320 320 320 321 320 320 319 318 318 316 317 318 317 317 316 317 317 316 316 315 314 315 314 313 313 310 309 308 309 308 307 306 306 297 302 304 304 304 304 305 305 305 304 304 302 301 302 301 296 299 296
311 312 312 313 311 311 310 310 309 309 309 307 309 309 309 309 309 309 310 311 313 314 314 315 315 316 316 315 316 317 318 318 318 318 319 319 319 319 319 319 318 315 317 318 319 318 319 319 318 318 316 317 316 317 316 316 315 314 314 314 313 300 296 295 299 309 308 306 303 303 303 303 304 305 302 305 304 305 304 305 302 302 301 302 301 300 300
310 310 310 310 310 310 310 311 310 309 308 308 307 305 306 306 305 306 306 308 311 313 314 314 314 314 314 315 316 316 317 317 317 317 317 317 318 318 318 318 319 312 319 318 317 317 319 319 318 319 316 316 316 316 316 316 316 315 314 306 313 310 299 294 304 305 305 304 303 303 301 303 305 305 304 303 304 305 304 304 303 302 303 302 301 301 299
308 306 307 308 308 309 309 309 308 308 308 307 307 307 307 307 308 307 308 308 309 312 313 313 313 313 314 315 316 316 316 316 316 316 316 315 315 316 317 319 319 318 318 317 317 317 318 318 317 317 316 315 315 315 315 315 315 315 314 313 313 309 298 298 301 305 303 303 303 304 303 302 305 306 305 303 304 305 305 304 302 302 303 302 302 302 300
305 305 306 310 309 307 307 307 308 308 309 309 308 308 308 308 308 308 309 310 311 312 313 313 313 313 314 315 315 315 317 317 314 314 315 314 314 315 315 314 316 317 317 317 317 317 317 318 316 314 314 314 314 314 314 315 314 314 314 312 310 306 304 304 304 305 303 301 302 301 301 303 305 306 303 302 304 304 302 302 301 302 302 302 301 300 296
311 310 309 311 312 312 310 308 308 308 308 307 307 308 308 308 309 310 309 312 312 312 312 312 312 313 313 314 314 314 314 314 313 313 312 311 314 314 315 314 314 314 314 314 315 315 317 317 315 314 313 313 313 313 314 314 314 313 312 311 307 306 306 303 304 304 304 304 303 302 301 302 302 298 301 304 304 303 303 302 303 301 301 300 300 301 298
308 309 310 309 312 311 310 309 309 309 309 309 308 308 308 309 310 310 312 312 312 312 312 312 313 313 312 312 311 311 311 311 309 309 312 310 313 314 314 314 314 314 313 313 314 315 315 314 301 300 313 312 312 312 313 313 313 313 312 310 307 306 304 303 304 305 304 304 302 300 299 297 300 301 304 304 304 304 304 302 302 301 301 301 301 301 300
310 311 311 311 311 311 311 310 310 310 310 309 308 307 308 311 311 312 312 312 311 312 312 313 312 311 310 310 310 310 310 310 310 310 310 310 312 313 313 313 313 313 313 313 312 314 314 313 296 291 306 310 310 312 311 295 312 311 309 309 308 307 304 304 305 304 303 302 301 300 297 297 300 302 301 303 303 304 302 303 300 302 301 300 300 299 297
311 311 312 311 311 312 312 311 312 311 310 309 310 309 310 310 312 312 312 312 311 312 312 312 311 310 310 310 310 308 306 306 308 309 309 310 311 311 310 311 310 311 311 311 312 313 313 303 289 300 312 311 311 312 304 292 297 307 307 307 306 305 303 305 304 303 302 304 299 303 301 301 302 302 302 303 303 303 301 302 301 301 302 300 299 298 298
309 310 311 311 311 311 310 310 311 310 309 308 308 310 312 312 311 312 311 311 311 311 311 310 310 310 310 309 308 309 308 304 305 309 310 309 310 310 308 309 309 310 309 310 311 311 306 302 307 309 311 310 311 311 298 290 293 308 307 307 306 305 303 303 304 303 302 304 302 303 302 301 301 302 302 302 303 301 299 302 302 299 300 300 300 299 299
309 309 309 310 309 309 309 309 309 309 310 310 309 309 311 310 311 311 311 310 310 311 310 310 309 307 307 307 307 308 309 309 309 309 309 309 308 308 308 309 309 310 307 298 308 309 301 294 302 309 309 309 309 310 301 297 297 306 308 307 307 305 305 304 306 304 304 303 302 296 301 301 302 301 301 302 302 301 302 301 300 300 300 301 300 299 299
308 309 309 308 308 308 308 309 308 309 309 309 310 311 311 310 310 309 309 309 309 310 309 309 307 306 306 307 307 308 309 308 308 309 308 309 308 307 306 307 310 310 309 308 308 304 298 300 306 308 307 308 309 302 303 294 303 308 309 308 307 307 305 305 304 303 302 301 300 301 302 302 301 302 301 302 302 303 302 302 301 300 300 298 298 298 299
308 308 307 307 308 308 308 308 308 308 309 310 310 311 311 311 309 308 309 310 310 309 308 307 299 308 307 308 308 307 308 308 308 308 308 307 307 307 305 307 309 308 296 299 297 299 304 304 305 302 309 309 306 294 293 300 305 307 307 307 306 304 305 305 303 303 303 303 303 303 302 303 303 302 301 302 302 301 301 300 299 298 298 299 299 300 300
307 306 306 307 307 307 307 306 306 307 307 309 309 309 309 308 307 307 306 309 310 308 307 306 305 304 308 307 307 307 307 308 308 308 308 309 309 309 308 309 310 306 290 301 306 308 306 308 308 309 300 306 302 289 290 304 305 306 306 306 304 306 305 304 305 304 304 305 304 304 304 303 304 304 302 302 302 301 300 300 298 298 298 299 300 300 300
307 306 306 306 306 306 306 306 305 305 305 306 308 308 307 306 305 304 304 305 307 309 307 306 306 306 306 307 306 305 305 306 307 307 306 307 308 309 310 309 310 300 290 303 305 306 306 307 308 299 286 288 288 289 300 305 306 306 307 306 304 304 304 305 304 304 304 304 303 304 304 301 303 304 303 301 300 300 300 299 299 298 298 299 299 299 299
307 306 307 306 306 305 305 304 304 304 305 306 307 306 306 305 305 306 305 305 305 308 307 306 305 306 306 306 306 307 307 307 307 307 306 305 306 307 308 300 305 304 299 295 305 306 306 307 299 289 290 287 288 290 304 306 306 306 306 306 306 305 304 304 303 304 304 305 304 304 303 303 303 302 302 301 297 300 300 300 301 301 299 299 299 299 299
308 307 308 301 306 306 306 306 306 307 306 306 306 305 305 305 305 306 306 305 305 307 308 308 307 306 306 306 307 307 308 308 308 309 308 308 308 308 307 300 308 300 292 290 305 307 304 286 286 287 287 286 288 297 305 305 305 306 306 306 306 304 305 307 304 305 303 303 302 303 304 303 302 302 301 301 300 300 300 298 299 301 302 302 301 300 300
307 306 307 308 308 308 308 308 307 306 306 305 303 303 304 305 306 306 306 307 307 308 307 307 308 308 307 307 307 306 305 305 307 308 309 309 306 304 298 294 291 289 294 303 305 307 303 298 290 286 286 287 288 304 305 306 305 306 305 305 305 305 303 305 304 305 305 304 302 300 297 300 302 303 302 299 301 301 301 300 301 301 302 301 301 298 298
304 304 304 305 306 306 307 307 306 305 304 304 306 304 305 306 306 307 308 307 306 307 307 308 307 307 309 309 309 309 309 307 303 305 308 309 309 309 308 309 303 293 294 293 294 291 286 288 286 286 286 286 295 305 306 306 305 305 306 306 306 306 306 306 305 306 305 304 302 303 303 302 303 303 302 302 302 302 303 301 301 301 303 302 301 301 301
301 300 300 300 301 302 303 303 303 301 303 304 305 305 306 306 306 305 306 307 306 305 306 306 306 307 309 306 306 308 309 308 307 306 308 309 310 309 309 296 287 287 296 306 306 303 289 286 286 286 285 288 302 306 306 306 306 304 304 306 306 306 306 306 306 306 306 304 304 303 304 302 303 302 302 301 301 303 302 302 302 303 300 300 301 299 300
296 297 296 295 295 296 298 299 298 299 300 301 302 304 306 306 304 304 305 306 306 302 305 305 305 306 307 307 309 308 308 308 308 308 308 308 308 309 307 307 304 296 294 306 307 302 287 284 286 286 291 300 304 306 307 307 306 305 305 304 304 306 303 301 298 299 303 305 305 303 303 303 304 301 300 301 301 303 302 302 301 296 293 295 298 299 299
293 293 293 293 293 294 296 295 296 297 297 297 299 299 302 303 302 299 300 299 304 304 304 304 305 306 306 307 308 307 308 307 307 302 308 308 308 302 302 305 305 302 303 304 305 306 303 303 302 296 296 301 304 305 305 306 305 305 301 305 304 303 303 303 301 303 304 304 304 304 304 303 303 304 303 302 300 301 300 301 299 299 299 300 299 299 302
293 292 295 294 293 293 293 293 295 296 296 295 296 296 297 299 300 298 297 291 299 301 302 305 304 304 305 305 305 307 307 306 306 308 303 304 306 307 302 297 307 302 304 306 308 309 307 304 297 294 295 302 305 306 299 298 303 304 305 301 301 304 303 302 302 303 303 303 303 304 302 303 303 303 303 303 301 301 300 301 302 301 300 301 301 300 300
Wind_Speed
6 3 4 3 9 14 16 18 17 17 17 18 17 15 14 12 10 7 8 12 14 16 20 16 8 5 1 0 3 4 7 9 11 13 14 14 15 17 18 19 19 20 20 19 21 20 18 17 18 17 16 16 15 14 14 15 15 15 14 16 15 14 14 13 13 13 12 11 11 11 11 11 11 11 11 10 10 10 10 10 9 10 10 10 10 10 10
6 5 6 7 8 8 12 16 18 18 19 20 19 16 16 15 10 11 9 7 14 14 21 20 3 3 3 2 1 4 8 10 12 13 14 15 16 18 19 20 19 19 19 19 20 20 20 20 19 18 16 16 16 16 15 15 15 13 14 16 13 14 14 13 12 12 12 11 11 11 11 11 11 11 11 11 10 11 11 10 10 10 10 10 10 10 10
5 5 4 6 9 11 13 13 15 17 17 18 19 17 17 17 15 14 15 11 10 11 15 13 1 2 2 2 5 7 9 10 13 13 15 16 17 18 18 18 20 20 19 20 20 20 20 20 19 17 15 16 15 16 16 14 13 13 12 13 12 14 13 12 12 12 11 11 11 12 11 11 11 11 12 10 11 11 11 10 10 10 10 11 10 10 10
4 3 3 5 8 12 13 14 16 17 18 18 17 15 15 15 14 15 13 12 13 12 12 12 5 1 4 6 6 7 8 11 13 14 16 17 17 18 18 19 19 20 20 21 22 22 20 19 20 18 16 15 15 17 14 14 13 13 12 12 12 12 13 12 12 12 11 12 12 12 12 11 11 11 11 11 11 11 11 11 10 10 10 11 10 10 9
2 2 4 4 9 10 11 14 17 18 16 15 14 15 16 16 13 13 11 13 11 12 11 12 9 5 6 6 6 7 9 10 12 13 14 16 17 18 19 20 20 21 22 21 21 21 19 19 19 18 17 16 16 14 14 14 12 13 13 13 12 12 12 13 12 11 11 12 12 12 12 12 11 11 11 12 12 11 11 11 10 11 11 11 10 10 10
2 4 3 6 10 11 10 6 13 15 16 16 16 16 17 17 16 13 12 12 13 15 14 12 11 8 5 5 5 7 8 10 13 14 14 16 16 16 17 18 19 19 15 16 19 21 19 19 18 16 17 16 16 13 13 13 14 14 14 13 13 12 12 13 12 11 11 12 12 12 12 12 11 11 12 12 11 10 10 10 10 10 11 11 10 10 10
5 4 2 6 9 8 5 3 3 14 17 17 18 16 17 18 19 18 18 18 18 17 15 12 8 4 1 2 6 9 10 11 12 15 16 16 17 17 18 18 19 19 20 18 20 19 19 17 17 16 15 14 13 13 13 14 13 13 13 13 12 12 13 13 12 12 12 12 12 12 12 12 11 12 12 12 12 10 10 10 10 10 11 11 10 10 10
5 5 4 6 5 6 5 5 2 2 7 13 15 16 17 18 18 18 18 19 19 17 16 12 6 3 1 4 7 10 12 13 14 15 15 17 17 18 17 19 18 19 21 20 20 20 17 16 16 16 16 15 15 14 13 13 12 12 13 12 12 11 12 12 13 12 13 12 12 12 12 11 12 13 12 11 11 10 9 9 9 9 9 9 10 10 10
4 4 5 2 3 5 6 6 5 8 9 11 12 10 13 14 15 16 17 19 18 17 10 4 1 2 3 7 8 12 13 14 14 14 13 14 15 14 14 16 18 18 17 18 19 18 18 18 18 17 15 15 15 14 13 11 13 13 14 14 14 13 12 13 13 13 13 13 12 12 12 12 12 12 12 11 10 9 9 9 9 9 9 9 9 9 10
2 3 3 3 4 6 4 5 4 3 5 3 11 10 10 13 15 16 17 17 18 16 6 3 1 1 5 9 6 10 13 14 13 12 11 12 13 14 15 15 16 17 17 16 18 18 20 18 17 14 14 15 15 15 14 14 14 14 16 16 15 15 14 12 12 12 12 13 13 12 11 12 12 10 10 9 9 8 9 9 8 8 8 8 9 9 10
5 4 3 3 2 4 4 6 4 2 2 2 4 7 10 11 16 17 18 19 18 13 6 6 5 4 7 5 3 2 10 12 12 12 12 13 13 14 15 17 17 18 17 18 20 19 19 19 17 16 17 17 16 16 16 16 15 14 14 13 12 13 12 11 10 11 12 12 13 12 12 12 11 11 10 9 8 7 7 7 7 7 8 8 8 8 9
4 4 3 0 1 3 5 6 4 3 1 3 8 6 5 7 2 5 12 16 15 9 7 7 7 8 5 5 2 3 6 11 13 12 13 14 14 15 15 15 16 17 17 17 18 20 21 20 18 18 18 16 16 15 16 15 15 15 15 14 14 13 13 13 12 11 10 11 11 11 12 11 10 11 9 8 8 8 7 7 7 7 8 7 9 8 8
2 3 3 2 3 4 4 5 5 2 2 4 7 6 2 5 3 1 2 6 5 5 8 8 7 7 1 4 4 3 7 12 10 11 12 13 14 15 16 16 17 16 17 18 20 21 18 18 17 17 16 15 15 14 15 15 15 15 14 14 14 14 13 13 12 12 9 9 11 10 10 10 9 9 8 9 8 8 8 6 7 7 9 8 8 8 8
3 3 3 2 4 4 3 4 4 3 4 5 2 6 3 5 4 3 1 2 4 4 7 7 6 2 3 4 3 3 9 10 14 13 13 14 14 14 15 15 17 16 17 18 18 18 17 17 16 16 16 15 14 14 14 16 17 12 12 13 13 13 13 13 13 12 10 8 8 8 8 9 9 9 8 9 8 9 8 7 8 8 9 8 8 8 8
4 3 3 2 3 3 1 2 2 0 3 4 3 7 4 5 5 5 3 1 2 3 6 7 4 2 1 2 3 3 9 10 12 14 13 14 14 16 17 18 18 17 17 17 18 18 17 17 16 15 16 16 14 13 14 15 14 15 11 11 11 12 12 12 12 12 10 11 9 8 9 10 11 10 9 9 9 9 9 9 9 9 9 8 8 8 8
4 2 1 1 1 2 3 3 1 2 3 5 6 6 5 7 7 7 5 5 3 2 4 5 5 4 3 1 1 4 9 10 10 9 11 12 13 14 16 17 18 18 15 16 16 18 16 16 15 15 16 15 14 14 16 14 14 13 12 11 10 11 11 12 12 12 11 12 11 10 11 11 12 11 11 10 9 8 8 9 9 9 9 8 8 9 9
4 1 3 3 3 3 3 2 2 3 3 3 4 6 5 7 7 7 6 7 5 1 1 3 5 5 3 1 2 2 5 8 12 9 7 8 11 14 15 17 17 16 16 17 17 17 16 18 15 15 15 16 16 16 15 14 15 16 15 14 14 14 14 13 13 12 12 12 13 12 12 12 12 11 11 10 9 8 9 9 9 9 9 9 9 8 9
1 4 5 3 4 2 1 1 3 4 2 2 1 4 5 7 7 7 7 7 7 3 1 1 3 5 5 5 3 1 4 6 9 14 15 13 10 12 13 15 17 16 15 16 17 18 17 18 17 14 15 15 17 15 14 15 17 17 16 15 14 14 13 12 13 13 13 13 12 12 13 11 11 9 10 10 10 9 10 9 9 9 9 9 9 8 8
2 2 3 3 3 2 1 2 2 3 1 2 1 1 5 7 7 7 7 7 7 6 3 3 3 1 1 3 3 3 5 7 9 10 12 13 14 15 15 15 16 15 16 16 17 18 17 17 16 15 15 14 15 14 15 16 16 16 15 15 13 12 12 11 10 10 12 11 11 11 11 10 10 10 10 11 11 11 10 10 9 9 9 9 9 9 9
5 2 2 0 1 1 1 2 4 2 0 1 3 3 6 7 7 6 5 5 7 5 6 5 3 3 1 1 2 3 4 6 8 9 10 13 14 14 14 15 16 15 15 16 17 17 16 16 15 15 14 13 14 14 14 15 15 14 13 13 13 13 14 12 11 11 12 13 13 11 11 11 11 11 11 12 11 11 11 10 9 9 9 9 10 9 9
4 3 4 2 2 4 5 3 2 2 2 3 2 2 6 9 9 7 7 8 8 7 6 5 5 5 3 2 2 2 2 3 5 6 9 11 12 13 14 13 15 14 14 14 15 16 16 16 15 14 13 12 14 15 14 15 15 15 13 14 13 15 14 13 12 11 10 12 11 10 11 11 10 10 11 11 9 8 8 8 9 9 9 9 9 9 9
4 5 2 6 3 2 5 4 4 4 2 1 3 1 5 8 8 7 6 7 7 7 6 5 6 6 5 4 3 4 3 4 5 6 8 10 11 12 12 11 14 14 12 13 14 16 15 15 14 14 13 12 13 14 14 14 15 15 14 14 14 14 13 12 12 12 10 11 11 10 11 11 10 9 7 8 9 9 9 9 11 11 11 10 10 9 9
2 2 2 4 3 4 4 5 6 5 5 5 6 7 7 7 7 7 7 6 7 8 7 5 6 6 5 5 4 5 5 4 4 5 7 8 9 9 10 11 14 14 12 12 12 14 14 14 14 14 12 12 12 13 14 14 15 15 15 13 12 12 13 12 12 12 11 11 11 10 10 10 10 9 8 6 3 1 2 12 11 10 9 7 9 10 9
3 3 4 2 3 1 6 6 5 4 5 5 5 7 6 5 4 6 7 6 6 6 7 6 5 5 6 5 5 6 6 6 6 6 7 7 8 8 9 9 10 10 10 11 14 16 14 14 15 15 13 12 13 13 13 14 14 14 15 13 11 11 11 10 11 11 10 11 10 10 9 10 10 10 10 10 7 5 5 8 10 10 11 11 12 11 10
4 6 3 3 3 7 7 6 6 7 9 7 6 7 8 8 8 7 6 5 5 6 6 6 6 5 5 6 5 6 6 6 6 7 7 7 8 8 8 9 10 10 10 12 13 14 14 15 15 15 13 13 13 12 12 13 13 14 14 13 12 11 10 10 11 11 10 11 10 10 10 11 10 10 10 10 11 9 3 4 7 8 7 8 12 13 12
3 2 3 5 7 7 7 7 7 7 7 7 7 7 6 6 6 7 7 7 6 7 7 6 6 7 6 6 6 6 8 7 7 6 6 6 7 7 7 9 9 9 11 12 13 13 12 13 14 13 11 11 11 11 11 12 13 13 14 13 13 11 11 11 12 11 10 11 11 10 9 10 10 10 10 10 10 9 9 7 4 1 3 6 9 10 10
3 4 1 6 7 8 6 3 4 6 7 8 9 9 6 3 2 2 3 5 6 6 6 6 5 5 6 6 7 7 7 7 6 4 5 6 6 5 6 6 8 9 10 10 11 12 12 12 13 13 12 11 11 11 12 13 12 12 12 12 11 10 12 11 10 11 10 10 10 9 10 10 10 11 10 10 10 10 11 11 10 10 10 8 7 10 9
4 4 6 3 4 6 9 12 11 8 7 5 6 11 4 2 1 1 3 4 5 5 6 7 6 6 6 6 4 5 4 4 5 5 5 6 5 4 5 6 8 9 9 9 9 8 10 12 11 11 10 12 13 13 13 13 13 13 12 12 11 10 10 9 7 7 8 9 10 10 11 11 10 10 9 9 10 10 10 10 10 10 9 9 9 9 11
2 4 4 5 10 11 10 9 5 5 5 7 12 12 4 2 1 2 3 3 3 3 5 5 5 5 5 5 4 5 4 4 4 5 5 5 4 4 5 5 6 7 8 8 8 9 11 11 10 10 10 11 12 13 13 13 12 12 12 12 11 10 11 11 11 10 10 10 11 11 10 9 9 9 9 10 10 10 10 10 11 10 9 8 8 7 8
2 3 3 5 7 10 10 9 11 13 12 10 8 4 2 1 1 2 3 3 3 4 4 4 4 5 4 4 5 5 4 4 4 4 4 5 5 4 5 6 7 6 7 8 9 10 11 11 11 12 11 12 13 13 13 13 12 13 13 13 11 11 12 13 11 11 11 10 10 9 9 9 9 9 10 11 11 11 11 11 11 10 10 10 10 9 10
3 3 2 3 3 3 3 4 7 7 6 5 2 2 2 2 3 2 3 3 3 3 5 4 5 5 5 5 4 4 4 3 3 3 3 4 4 5 6 6 6 6 7 8 8 10 10 11 11 10 10 11 12 12 13 12 12 12 11 11 10 12 14 15 12 11 10 10 9 10 10 9 10 10 11 11 11 11 11 11 11 11 11 11 11 11 10
5 3 3 2 0 2 2 3 3 5 5 3 3 3 4 4 5 5 4 3 4 4 3 4 5 5 4 4 3 3 3 3 3 3 3 3 3 4 4 4 3 3 5 6 7 8 9 10 11 10 11 12 12 13 12 12 11 11 11 11 10 9 11 15 10 10 9 9 9 10 9 10 10 10 10 10 10 11 11 11 11 11 11 12 11 10 9
7 6 3 3 2 3 4 4 4 5 5 5 4 4 4 4 4 4 4 3 2 2 2 4 4 4 3 3 3 3 3 3 4 4 4 3 4 3 3 2 3 3 4 5 6 7 8 9 8 8 10 11 11 12 12 11 11 10 10 10 9 10 11 12 10 10 9 9 9 10 9 10 9 10 10 10 10 10 11 11 10 11 11 11 10 9 10
6 3 3 6 6 6 6 5 5 4 4 3 4 3 3 3 3 3 4 3 3 3 3 3 3 3 3 3 3 3 1 2 3 4 4 4 3 3 3 2 2 3 3 4 5 6 6 7 8 8 9 10 11 11 11 12 10 9 9 9 9 9 11 10 10 10 9 10 9 10 9 10 10 9 9 10 10 10 10 10 9 9 9 8 7 7 10
3 3 2 4 7 5 5 5 5 5 6 5 4 3 4 3 3 5 4 4 4 4 3 2 3 3 3 3 4 4 5 6 6 5 5 4 4 3 3 3 3 3 3 3 3 3 5 6 7 8 9 10 10 9 9 11 9 9 9 9 9 10 10 10 11 10 10 10 9 10 9 10 10 10 10 10 10 10 9 9 8 8 8 8 7 8 9
9 6 2 3 5 4 4 4 5 5 5 4 4 4 4 4 3 3 4 4 3 3 3 3 3 4 5 5 6 6 6 6 5 5 5 4 3 2 2 2 3 3 4 4 2 3 4 5 5 6 7 8 9 9 10 10 10 9 9 9 9 9 9 10 10 9 7 7 8 8 8 8 8 9 9 9 9 9 9 9 9 8 9 9 8 9 7
8 5 2 4 6 5 3 2 4 5 4 4 5 5 5 4 4 5 4 4 4 4 3 3 4 6 6 6 5 5 5 4 4 4 4 3 2 2 3 3 2 2 2 4 4 3 3 5 8 7 6 7 7 9 10 10 8 8 8 8 8 8 8 9 9 8 8 8 8 8 8 7 8 8 8 8 8 8 8 8 9 9 9 8 8 8 7
4 3 1 3 4 4 4 3 3 5 6 6 5 4 4 4 4 4 4 4 4 4 4 5 6 5 4 4 4 5 4 4 3 3 2 3 2 2 2 1 1 1 1 4 2 3 2 7 9 8 7 6 6 7 10 10 8 8 8 8 8 8 8 9 9 8 9 8 9 9 9 9 9 8 7 7 8 8 8 8 8 8 8 8 7 7 8
4 4 4 4 4 4 4 4 5 5 5 6 5 5 4 4 4 4 5 5 4 3 4 5 4 3 3 2 3 3 3 1 1 2 2 2 3 3 3 3 4 4 4 3 1 2 5 7 7 6 4 3 4 5 10 10 10 8 8 8 9 8 8 9 9 9 9 9 9 8 9 9 8 7 8 10 9 9 9 9 8 8 8 8 8 8 8
6 6 6 4 5 5 5 6 6 5 5 4 5 6 5 4 4 4 5 5 4 2 3 2 1 0 1 1 1 1 3 2 2 2 2 2 2 1 1 3 3 2 4 2 2 3 5 5 5 4 4 5 6 6 9 10 9 7 7 7 8 8 8 8 8 8 9 8 9 9 8 8 9 10 10 9 9 9 8 9 9 8 8 7 7 7 7
6 5 4 4 5 4 5 6 6 5 5 5 5 6 4 4 4 3 3 5 5 3 3 1 1 1 2 3 3 2 2 2 1 2 2 2 2 2 3 1 3 3 2 3 5 4 4 6 4 4 4 5 5 5 7 10 9 7 6 7 7 7 7 8 8 8 8 8 8 9 10 10 10 10 9 9 9 8 8 8 8 7 6 6 6 6 7
5 5 4 5 5 5 6 7 6 6 5 6 6 5 5 3 2 2 2 3 4 3 3 4 6 5 3 2 1 1 1 1 1 1 2 3 4 3 4 1 3 3 5 3 5 4 4 5 4 3 4 5 5 9 9 10 9 7 6 7 7 7 7 8 8 8 8 9 9 10 10 9 9 9 9 9 8 7 7 6 6 6 6 7 7 7 8
4 4 5 6 7 8 7 5 4 5 5 5 4 5 4 3 2 1 1 1 3 4 3 3 2 2 0 1 2 2 1 0 1 1 2 2 2 2 4 3 2 5 3 1 1 2 3 3 4 3 3 1 7 11 11 9 8 6 6 6 7 7 7 7 8 8 8 8 8 8 8 8 8 8 8 8 7 7 6 7 7 7 7 6 6 7 7
4 4 6 7 7 6 4 3 3 3 4 4 4 4 2 2 1 1 1 0 2 4 4 2 1 1 1 2 2 2 1 2 2 0 3 2 4 4 2 1 1 5 1 2 1 1 1 2 2 8 9 10 13 12 9 8 8 6 6 6 6 6 6 6 7 7 7 7 7 7 8 8 8 7 7 7 6 6 6 6 6 6 6 6 6 7 7
4 5 6 6 6 4 4 4 4 3 3 4 4 3 2 1 2 1 2 0 0 2 5 3 2 0 1 1 2 2 3 3 3 4 3 3 3 3 3 1 1 2 4 3 2 1 1 2 8 9 8 10 11 10 7 7 7 6 6 6 6 6 7 7 7 7 7 7 7 7 6 7 6 6 6 6 7 7 7 8 8 8 8 8 8 9 9
3 4 4 5 5 3 2 3 4 3 4 4 4 4 2 1 2 1 0 2 0 2 4 3 2 1 2 2 1 1 2 2 1 2 3 3 3 3 3 3 1 3 3 3 1 1 4 8 8 7 8 9 10 9 5 5 5 5 5 5 6 6 6 6 6 6 6 5 5 5 6 6 6 6 6 6 7 8 8 9 8 9 9 9 10 11 12
5 4 4 3 3 4 3 1 2 4 4 3 4 4 3 2 1 0 2 1 1 1 3 3 3 1 1 2 2 2 2 2 0 2 2 1 3 2 5 3 5 5 3 2 0 1 4 5 6 7 8 9 10 5 4 4 4 4 5 4 5 5 5 5 5 5 5 6 6 6 6 6 6 6 7 7 7 8 8 9 9 9 9 10 11 11 12
9 9 8 8 7 5 2 1 3 4 2 2 3 2 3 2 1 1 1 1 2 1 2 3 4 3 2 1 1 3 4 4 5 2 3 2 1 1 2 1 3 5 2 3 4 5 8 8 7 7 6 7 7 4 4 4 4 5 5 5 5 6 6 6 6 6 6 5 6 6 6 7 7 6 6 7 7 8 9 9 9 10 11 11 11 12 12
10 10 10 10 10 10 8 7 6 6 6 6 4 3 4 2 1 1 1 1 1 1 3 3 2 2 2 3 1 1 1 2 3 4 4 3 1 0 3 6 6 4 4 2 2 4 6 6 6 6 6 7 5 4 4 4 4 4 5 5 5 5 5 5 5 5 5 6 6 6 6 7 7 7 6 7 7 7 8 9 9 8 7 9 10 10 9
10 10 10 10 10 11 9 8 8 7 7 7 6 5 5 3 0 5 6 6 4 2 0 2 1 2 2 1 1 1 1 1 1 2 2 1 1 1 1 1 3 2 4 3 2 4 7 6 6 5 5 5 5 4 3 3 4 4 4 4 4 5 5 4 4 4 5 5 6 6 7 7 7 7 6 6 7 7 7 7 7 7 7 8 9 10 10
10 12 11 10 9 8 10 10 9 8 8 8 7 7 7 5 6 7 7 9 6 5 5 2 2 1 0 1 1 2 1 1 0 2 3 1 0 1 2 1 3 3 3 2 2 2 5 5 5 6 6 6 4 4 4 4 4 4 4 4 5 5 4 5 5 5 6 5 5 5 6 6 6 6 6 7 7 7 8 7 7 6 7 7 8 8 8
12 8 10 10 10 11 11 11 11 10 10 9 9 9 8 7 6 6 8 11 8 6 7 6 3 6 5 4 4 2 3 3 2 1 1 2 1 2 3 1 2 4 4 4 3 3 3 4 6 6 6 5 5 4 4 2 4 4 5 5 5 5 5 5 6 6 6 6 6 6 6 6 6 7 7 7 8 8 8 9 8 7 9 7 8 8 7
Wind_Direction
266 269 225 170 205 203 194 201 198 201 203 207 215 221 226 225 222 237 194 220 222 233 256 253 257 50 42 71 180 188 184 178 177 174 178 181 182 182 184 185 188 184 179 175 174 172 168 166 170 170 172 172 168 168 164 168 166 165 154 169 166 161 165 164 164 162 160 158 155 155 156 158 159 162 159 164 162 162 165 166 169 169 168 165 165 167 162
264 243 228 214 215 220 222 208 204 204 202 205 210 214 220 228 236 240 261 208 224 226 246 257 315 67 20 29 125 174 182 187 183 182 181 185 189 187 188 188 187 183 178 172 172 175 173 171 173 172 171 170 170 164 164 168 165 158 157 173 163 160 166 163 161 159 154 152 156 155 157 159 161 163 160 161 164 165 169 168 170 170 169 169 170 168 167
233 233 262 269 240 220 220 222 217 211 209 210 210 213 215 221 228 232 240 249 251 236 247 262 164 336 18 276 204 197 196 189 186 183 186 189 191 191 190 188 188 182 178 175 172 172 176 177 177 175 175 173 169 167 167 164 154 155 156 164 164 159 158 156 155 152 148 151 154 157 158 160 160 163 161 163 167 169 169 169 170 170 174 173 175 172 170
228 184 313 258 226 217 221 218 218 211 207 210 208 215 213 218 222 223 233 239 242 245 249 253 251 199 257 246 221 204 197 195 187 190 187 191 192 190 188 185 188 183 180 182 179 178 174 174 175 174 176 170 170 170 163 159 157 157 157 162 161 156 152 153 154 152 151 155 158 158 160 161 161 163 160 164 170 171 168 170 170 172 177 177 176 174 172
216 150 326 213 186 191 215 220 215 211 208 211 209 216 218 224 226 224 225 236 244 255 255 256 255 252 250 248 228 207 198 198 194 195 193 191 192 192 189 185 187 189 186 181 178 182 180 177 178 178 175 172 171 164 154 156 152 159 161 162 160 152 151 156 157 155 155 159 162 162 164 162 162 161 162 169 172 171 171 171 172 177 180 179 178 176 177
290 318 18 171 177 197 214 209 206 210 211 204 211 210 213 218 218 232 236 244 247 247 250 250 255 262 260 251 223 209 203 193 194 196 199 199 191 190 190 188 185 185 179 177 179 179 176 179 178 173 178 170 171 156 154 156 160 165 163 162 160 154 154 158 156 155 157 161 163 165 164 163 162 164 168 173 172 172 171 171 178 179 182 182 178 179 180
280 311 278 191 201 202 78 49 179 202 209 208 214 215 212 212 215 223 230 238 244 248 252 257 271 299 63 201 217 205 204 202 197 196 197 195 191 188 188 188 186 179 180 174 171 172 174 173 178 170 174 162 149 147 154 158 162 158 157 154 160 161 162 160 156 157 162 164 165 163 163 162 165 169 172 172 172 173 172 174 179 183 182 184 183 181 183
277 258 189 187 191 86 96 81 95 57 216 218 218 227 220 217 218 216 225 232 240 246 254 264 274 298 276 239 225 214 203 199 199 197 198 191 189 188 186 187 186 178 176 174 172 176 176 167 170 173 171 159 152 153 160 159 157 161 160 157 154 153 156 158 158 160 163 164 164 160 161 163 168 171 172 170 171 170 172 176 181 183 182 186 183 185 185
310 323 207 156 101 150 138 152 144 175 187 188 195 213 223 221 219 218 224 232 240 246 247 245 302 334 274 255 231 206 203 200 205 205 198 190 188 185 183 185 186 182 177 177 173 170 169 171 173 174 159 156 154 151 155 159 164 170 171 172 171 165 165 165 163 165 166 162 160 161 162 163 167 168 168 167 168 167 172 176 179 182 182 184 184 188 184
314 316 245 186 170 186 126 61 96 155 8 280 213 219 238 218 215 215 224 232 237 240 213 181 158 265 281 265 254 178 194 195 200 200 196 186 181 178 181 179 180 180 177 172 170 174 172 175 174 160 155 157 157 158 162 164 168 172 176 176 170 166 164 160 158 163 167 165 161 163 165 169 169 162 158 159 163 164 170 168 173 179 181 182 183 185 183
304 302 266 195 153 81 39 60 65 78 16 251 147 205 235 213 214 213 221 229 236 237 203 169 158 222 254 274 316 103 183 185 186 189 191 180 173 175 179 176 175 176 178 173 167 174 173 177 171 159 158 160 163 168 171 172 173 172 177 169 163 161 159 155 154 160 167 166 165 168 172 174 168 162 163 164 158 158 159 161 168 177 183 180 177 177 181
257 292 304 75 329 69 28 14 18 356 90 169 188 201 210 93 132 213 219 228 236 229 190 168 198 227 244 225 139 7 208 175 170 183 182 171 171 173 173 172 173 172 170 165 173 178 180 178 167 162 162 166 168 168 170 171 175 179 180 179 177 169 159 158 160 161 160 157 158 163 169 170 167 168 163 156 157 159 158 167 172 175 178 180 177 178 175
303 263 266 147 115 82 40 14 10 63 163 199 193 201 63 12 23 50 244 249 241 202 186 190 224 217 13 31 349 260 198 164 163 176 178 177 173 168 169 168 164 168 173 174 178 180 178 167 162 161 162 164 166 168 168 171 176 180 181 176 169 165 162 163 163 157 147 147 149 155 161 159 158 156 159 159 154 158 158 169 172 173 175 175 176 172 173
288 328 289 125 82 52 345 39 41 109 178 191 194 34 306 327 354 30 336 258 229 214 210 203 228 95 102 36 360 247 190 172 162 181 181 175 171 166 165 160 169 165 171 177 180 179 176 165 161 161 164 165 167 166 173 180 181 173 163 158 157 157 161 163 162 161 153 135 136 145 153 153 155 158 160 157 157 159 166 166 167 167 169 172 175 175 177
297 266 274 181 170 113 54 344 154 190 298 55 10 309 34 14 12 360 26 317 284 222 209 210 194 150 202 34 29 158 165 163 167 177 179 175 168 163 165 166 173 169 172 177 179 179 176 170 166 167 166 166 168 166 172 178 180 182 156 143 147 153 154 153 157 157 150 151 155 160 164 162 162 165 164 164 164 167 168 166 167 165 169 175 178 177 178
248 236 263 28 36 346 69 7 36 52 17 340 343 325 18 21 22 13 1 39 5 237 226 195 164 159 187 151 123 139 150 154 157 169 176 174 169 167 168 169 171 175 172 174 173 176 178 178 172 170 170 168 168 171 181 175 175 175 158 150 148 155 157 159 159 157 155 161 166 169 167 170 174 172 171 169 166 168 171 171 172 173 175 178 183 180 181
235 288 7 103 334 318 357 35 314 337 5 348 347 326 360 16 26 2 22 26 36 66 182 207 189 177 206 137 125 143 151 158 147 143 172 183 182 178 170 173 168 174 174 174 173 176 177 181 175 171 172 169 166 178 181 175 172 175 163 160 168 169 166 165 163 163 166 173 176 172 171 174 178 174 165 163 169 176 179 185 183 179 176 179 184 184 184
332 253 257 323 293 318 314 226 250 269 210 125 302 351 41 37 33 26 27 23 37 53 36 232 196 231 218 236 224 146 164 179 173 166 169 174 190 195 184 178 174 179 170 173 174 177 180 183 182 177 177 172 172 178 163 168 176 175 163 167 171 169 161 155 157 160 165 170 172 172 172 177 177 172 169 173 179 181 186 187 182 180 177 178 184 185 187
295 213 142 233 230 144 156 196 182 228 253 43 350 350 65 64 51 50 49 40 39 38 18 342 341 224 246 226 212 187 161 170 173 178 169 171 179 190 188 184 174 183 173 176 179 180 180 181 184 182 178 178 177 166 162 164 167 165 166 166 162 155 151 147 144 155 160 167 170 173 175 176 178 177 178 183 187 184 187 183 180 182 180 179 185 187 187
241 333 50 135 247 248 188 197 163 145 241 265 284 264 99 89 73 49 50 60 53 34 48 30 41 77 104 196 186 195 172 150 155 166 168 174 178 185 189 183 177 189 179 179 178 179 182 184 185 183 180 179 171 162 163 165 161 159 162 164 160 159 156 154 160 167 171 161 164 170 176 180 184 187 187 188 187 185 185 181 177 181 183 182 187 188 184
244 259 239 235 210 206 173 169 98 30 4 303 308 263 109 95 88 83 65 54 58 54 43 34 69 96 101 120 173 188 140 132 151 161 163 171 178 179 184 171 182 189 187 185 178 182 182 183 186 185 180 173 168 163 166 164 164 165 165 161 162 163 162 163 166 166 167 163 175 170 172 179 188 188 184 183 182 179 182 177 180 178 181 187 190 186 186
236 255 211 179 201 200 186 113 80 83 94 348 8 333 68 68 73 77 83 86 74 62 46 42 63 79 92 103 142 145 150 155 138 145 159 168 172 175 181 171 187 190 185 187 175 180 185 187 186 183 174 171 170 167 165 167 166 167 164 164 167 165 166 167 167 167 169 167 173 170 172 178 183 186 177 180 187 182 180 187 184 184 178 190 187 184 190
226 55 307 225 316 65 55 93 85 72 28 28 46 44 46 56 57 63 57 69 81 73 62 45 69 77 81 82 96 112 118 122 135 147 154 164 168 173 172 179 191 187 175 185 170 180 186 185 187 182 169 169 166 167 166 168 169 166 161 160 163 165 168 171 167 170 171 170 174 174 176 177 180 178 171 162 64 51 229 177 177 177 182 168 164 186 190
326 334 319 312 356 262 123 98 83 63 38 5 26 52 49 47 53 58 63 46 45 67 78 68 51 73 83 81 82 88 95 111 121 138 152 153 161 166 172 185 188 178 173 166 170 187 188 189 186 177 167 166 166 167 167 167 167 164 161 157 159 163 165 163 155 165 167 166 169 172 174 177 179 179 174 177 183 121 82 165 169 170 170 164 171 184 198
304 354 334 37 71 102 95 84 43 23 28 9 356 12 19 12 24 29 50 58 52 51 62 68 64 52 74 80 84 91 103 104 114 130 137 148 148 165 173 182 182 176 179 181 182 186 192 192 186 175 165 163 163 166 167 169 168 166 164 164 164 162 163 155 157 165 165 165 170 173 175 177 183 183 182 182 181 179 96 73 150 158 170 183 185 190 193
316 356 77 108 104 101 117 114 78 40 17 358 352 359 15 22 355 23 37 29 30 35 44 47 55 50 46 59 69 84 94 94 101 126 128 131 146 157 165 174 176 177 179 184 191 193 189 193 187 180 169 156 154 154 164 169 169 166 166 167 165 163 162 157 161 168 171 167 168 173 177 179 182 181 185 185 184 174 173 170 145 138 201 203 202 197 199
89 50 103 135 92 72 39 47 70 38 23 5 354 332 329 359 318 12 57 48 41 37 40 39 42 46 52 54 54 48 74 103 124 119 115 128 141 147 153 163 167 175 182 187 193 192 186 192 186 176 165 149 150 163 171 169 166 166 170 167 166 151 146 153 164 168 172 171 170 171 178 182 183 185 186 187 184 182 184 184 189 192 197 201 205 198 199
97 61 26 78 126 94 63 39 33 22 21 357 321 287 287 277 295 4 48 43 42 44 47 34 28 32 50 44 49 86 104 105 89 95 108 123 127 140 152 156 166 168 182 184 186 169 180 185 178 172 167 164 165 167 169 168 169 170 170 167 166 159 155 151 152 159 166 169 175 180 185 186 186 184 180 178 182 189 188 188 188 190 193 197 195 186 193
97 50 38 95 120 121 114 97 70 346 330 278 252 250 249 270 24 7 41 36 23 32 48 43 42 38 37 40 36 57 64 72 84 91 96 99 116 130 141 157 160 168 175 178 175 166 176 175 180 175 164 162 163 165 165 164 168 171 171 169 166 159 163 169 173 172 174 175 182 185 181 175 172 174 179 186 192 193 192 193 193 191 189 180 175 159 178
127 75 54 99 129 137 153 175 183 183 212 241 217 199 155 147 102 48 29 33 18 38 34 31 51 49 38 49 43 34 43 55 71 88 94 117 123 136 146 153 157 165 170 179 175 174 182 184 182 179 166 169 166 166 165 167 170 174 173 174 175 169 171 172 174 174 176 181 178 153 159 173 181 183 189 193 194 197 197 198 192 191 190 185 182 186 186
123 99 71 98 145 188 218 168 165 185 208 242 244 143 131 110 97 81 51 35 27 30 28 27 39 48 50 43 37 39 46 58 67 77 86 99 121 132 146 154 165 171 178 180 175 178 180 180 181 177 163 168 165 168 169 171 173 173 175 176 181 163 161 163 172 174 175 174 166 172 178 181 189 193 194 196 193 198 199 197 191 197 201 200 197 202 194
150 122 77 54 298 247 185 163 188 195 189 190 192 124 77 73 69 59 45 33 31 8 8 28 35 36 34 34 32 48 61 73 82 78 86 90 104 126 139 164 137 141 168 162 165 174 180 178 182 175 165 171 169 171 172 174 175 177 182 180 180 159 154 156 171 172 172 167 166 174 180 187 192 196 191 196 195 196 198 199 196 198 202 206 201 195 182
154 145 166 188 207 226 219 199 200 185 176 171 125 106 95 74 63 54 47 17 16 26 29 40 40 35 30 29 43 64 75 84 85 93 88 90 93 96 112 130 130 135 133 152 161 169 172 179 171 158 165 167 170 171 173 173 177 177 179 177 179 162 152 166 168 163 165 164 169 178 177 188 194 192 195 193 197 197 200 201 198 195 200 202 194 185 184
165 149 133 177 189 196 209 196 209 193 163 134 132 123 101 83 60 47 37 24 26 40 46 49 48 37 40 49 56 56 94 155 108 85 80 84 86 95 102 113 114 116 111 126 157 166 176 175 160 160 162 166 172 173 175 175 177 178 174 173 163 148 158 167 160 173 171 175 175 174 177 185 195 199 195 194 198 200 200 200 193 190 190 191 191 194 168
324 86 18 220 200 215 231 202 197 195 177 167 153 127 96 75 53 53 17 11 43 51 58 69 71 62 63 57 60 56 56 60 60 70 71 69 81 92 102 118 124 128 130 139 155 167 176 173 169 168 167 174 176 174 175 176 173 169 163 161 157 157 164 166 175 181 180 177 174 176 183 189 199 204 204 198 199 198 195 196 192 191 194 192 193 194 172
275 249 208 210 208 207 213 198 189 188 188 178 150 133 115 88 70 75 71 65 58 64 71 73 79 82 73 66 65 59 62 60 55 57 64 62 64 89 110 117 123 133 133 130 136 142 165 165 155 160 171 170 180 181 181 180 180 179 171 169 161 162 164 169 180 181 179 168 170 176 182 187 193 195 198 199 200 198 199 193 199 195 203 203 197 191 175
233 243 259 169 172 178 154 157 174 178 177 154 142 131 119 110 94 86 93 95 80 64 59 75 90 84 77 69 68 63 54 45 39 46 49 32 43 59 76 85 92 85 163 155 131 149 173 135 134 163 192 170 181 182 167 159 178 168 162 169 165 169 167 173 178 177 176 177 180 183 185 185 199 201 201 205 201 201 200 200 195 199 202 204 195 185 169
199 236 205 131 129 123 97 86 131 149 133 123 111 102 108 114 113 110 101 99 91 76 64 68 76 81 90 92 87 80 66 40 42 49 36 40 25 38 79 71 106 160 118 78 95 168 128 119 148 181 200 188 183 177 144 152 156 161 169 172 172 174 174 179 178 182 181 183 184 187 186 190 191 196 192 211 213 203 198 202 192 193 193 188 186 184 185
161 153 122 102 94 97 104 118 130 130 144 141 127 115 98 99 110 130 123 102 94 97 104 96 96 91 79 80 77 81 80 82 20 24 30 41 23 349 26 27 28 23 46 38 30 82 116 144 180 191 204 188 178 143 136 155 165 177 168 173 172 179 176 184 183 183 186 183 185 188 183 178 186 190 201 211 206 198 196 198 192 190 198 194 193 194 198
123 120 114 117 115 121 126 126 123 117 111 125 138 127 125 127 131 127 124 123 107 91 108 115 135 89 56 28 348 31 65 50 25 8 8 5 349 320 206 134 94 70 63 358 289 89 110 163 186 189 179 183 181 160 155 162 183 194 173 175 175 179 179 184 184 183 183 184 180 176 181 183 198 205 206 204 200 199 195 191 197 196 197 187 184 185 191
119 118 120 122 118 125 130 132 123 119 123 124 111 109 115 120 123 128 131 131 130 125 107 83 274 270 311 315 327 4 52 52 1 351 342 298 265 252 282 219 100 106 96 38 37 80 144 187 195 181 174 175 188 155 145 160 183 199 183 178 180 180 179 183 189 186 182 177 175 179 194 198 196 203 204 205 204 198 195 188 184 177 172 169 178 189 200
120 120 123 129 131 125 123 121 126 122 113 103 102 105 104 95 79 79 96 131 138 140 118 87 34 357 10 335 349 342 35 27 329 310 294 301 302 293 252 127 78 76 77 116 141 146 159 186 210 212 175 170 138 127 139 164 192 194 189 180 181 182 185 187 190 190 189 194 194 196 195 200 195 199 198 200 197 190 179 167 164 172 182 188 197 201 205
138 140 133 132 126 126 129 131 132 118 116 123 125 113 102 89 82 75 76 137 176 157 127 95 142 222 181 261 277 290 18 354 274 269 253 227 244 287 317 37 67 93 120 336 310 181 171 176 184 180 52 50 131 134 144 170 192 195 195 185 184 187 186 188 187 193 191 191 190 195 194 198 200 198 193 195 196 188 180 175 179 186 192 194 199 204 208
143 145 141 137 132 123 123 113 109 145 150 131 128 123 109 79 29 360 330 196 206 196 202 181 228 13 331 308 298 306 326 326 301 286 274 214 180 183 211 258 62 88 78 284 196 241 132 170 118 86 92 105 129 152 169 180 192 194 192 188 183 190 191 186 189 191 191 193 195 198 198 197 203 200 194 191 191 185 180 178 181 181 186 194 203 208 211
160 150 148 141 133 143 150 145 161 150 98 118 159 165 161 132 110 76 22 4 226 190 205 224 266 257 334 306 283 336 340 351 338 334 289 272 243 123 118 134 185 194 141 266 280 229 182 91 94 112 120 132 152 176 191 182 189 188 182 182 182 184 185 192 195 196 196 195 197 198 195 190 195 191 193 193 192 191 187 188 188 189 193 207 212 215 215
114 137 134 155 168 158 117 120 120 134 151 166 157 155 157 113 95 98 218 330 193 191 201 221 231 225 293 303 347 333 274 287 355 337 341 328 352 53 66 348 70 69 100 229 280 256 83 84 111 123 129 145 160 196 200 186 184 182 183 185 183 188 186 186 187 193 190 193 193 197 193 196 196 202 202 200 194 205 202 195 197 205 214 224 230 231 227
73 76 61 53 55 43 39 98 145 163 158 184 188 178 170 151 171 34 66 58 348 209 212 191 174 182 271 283 305 288 291 311 48 93 14 90 125 123 99 92 95 103 182 228 84 32 78 123 123 129 140 157 191 200 185 180 182 182 177 187 178 184 186 186 185 193 190 195 193 195 195 198 199 199 196 203 200 203 206 200 214 221 231 240 237 224 220
59 58 51 43 40 42 56 149 200 207 181 61 352 17 77 112 177 29 55 57 80 156 203 195 186 199 223 258 328 327 322 329 330 34 60 30 66 165 194 205 113 129 160 116 93 81 84 102 120 139 145 170 207 209 179 182 181 185 184 182 193 186 190 187 192 192 196 180 177 191 191 193 202 206 198 200 207 204 209 210 218 228 238 234 225 217 212
57 59 53 47 42 38 43 43 43 37 26 5 356 38 24 350 217 198 153 187 250 118 142 147 185 199 94 73 26 307 346 332 331 359 20 2 12 129 97 100 104 154 227 221 152 128 115 122 133 141 156 203 214 202 197 182 188 186 189 186 190 193 195 197 198 196 194 188 188 197 199 199 200 201 200 204 212 215 212 221 224 228 230 229 223 219 222
37 45 48 44 40 32 29 40 38 28 17 9 13 7 343 293 197 41 16 2 357 327 9 138 157 119 125 126 115 77 16 324 273 283 307 11 347 351 99 112 110 126 317 320 129 105 107 119 130 144 187 206 219 220 200 195 180 194 193 186 201 201 197 205 199 212 215 202 198 196 200 205 204 201 203 206 206 214 214 215 222 219 213 226 224 222 223
44 48 49 47 48 41 33 37 36 30 25 20 16 10 4 35 55 45 29 358 336 347 356 27 117 102 331 94 92 74 58 206 307 307 282 211 129 49 4 103 140 165 185 233 208 158 150 182 177 171 204 226 219 213 208 200 203 182 202 208 198 221 188 190 212 203 214 218 212 205 210 212 214 205 207 215 210 214 220 217 220 222 215 218 221 223 223
45 45 52 51 52 52 45 37 33 34 33 28 26 24 22 27 44 45 38 17 7 8 355 340 41 48 18 23 14 26 40 10 313 190 203 259 255 214 139 262 213 153 196 212 201 190 188 154 146 177 213 220 222 207 181 198 226 213 200 206 210 212 217 213 206 213 210 207 221 226 218 224 224 220 223 227 225 221 223 223 225 225 221 217 217 218 221